sat.trackr.live / text

‹ back to catalog

STARLINK-6153

NORAD 56384 · 2023-061L

PAYLOAD ACTIVE UNKNOWN

§ Identity

Operator
Country
US
Launch date
2023-05-04
Launch site
AFETR
Launch vehicle
Mass (kg)
RCS (m²)

Purposes: comms

External: N2YO · Heavens-Above · Gunter

§ Orbital elements

Epoch: 2026-05-24T23:13:39.768960Z

Period
94.27 min
Inclination
43.0028°
Eccentricity
0.0001308
Mean motion
15.27580524 rev/d
Perigee alt
482.2 km
Apogee alt
483.9 km
Semi-major
6,861.2 km
B*
4.6085e-5
RAAN
127.2672°
Arg perigee
265.9871°
Mean anomaly
94.0831°
Rev number
16,841

§ Raw data

STARLINK-61531 56384U 23061L   26144.96782140  .00001006  00000+0  46085-4 0  99952 56384  43.0028 127.2672 0001308 265.9871  94.0831 15.27580524168416

JSON: /api/v1/satellites/56384 · /tle

For live sub-satellite position, see the globe view (requires WebGL).

§ Visibility from observer

Set your observer location to see the next 7 days of passes ≥ 10°. The values pass through the URL so the page stays shareable.

No JS? Fill the form by hand. The geolocation button needs JavaScript.